�������l�o���
Date,Time,MP-1(��Sv/h),MP-2(��Sv/h),MP-3(��Sv/h),MP-4(��Sv/h),MP-5(��Sv/h),MP-6(��Sv/h),MP-7(��Sv/h),MP-8(��Sv/h),����,����(m/s),���J
2018/10/22,00:00,0.790,1.193,0.842,1.505,1.077,0.461,0.808,0.767,�k�k��,4.8,��
2018/10/22,00:10,0.791,1.195,0.838,1.504,1.076,0.461,0.811,0.768,�k�k��,5.1,��
2018/10/22,00:20,0.789,1.192,0.841,1.503,1.077,0.459,0.809,0.767,�k�k��,4.6,��
2018/10/22,00:30,0.790,1.193,0.840,1.503,1.074,0.459,0.811,0.767,�k�k��,5.0,��
2018/10/22,00:40,0.788,1.194,0.840,1.504,1.075,0.461,0.809,0.768,�k�k��,4.2,��
2018/10/22,00:50,0.790,1.190,0.841,1.506,1.080,0.459,0.809,0.767,�k�k��,4.0,��
2018/10/22,01:00,0.789,1.193,0.841,1.504,1.078,0.461,0.810,0.767,�k��,4.1,��
2018/10/22,01:10,0.786,1.195,0.841,1.504,1.073,0.460,0.809,0.767,�k��,4.0,��
2018/10/22,01:20,0.789,1.195,0.840,1.502,1.075,0.460,0.810,0.768,�k��,4.2,��
2018/10/22,01:30,0.789,1.194,0.839,1.504,1.076,0.460,0.809,0.768,�k��,4.0,��
2018/10/22,01:40,0.790,1.195,0.840,1.503,1.076,0.459,0.810,0.766,�k��,4.4,��
2018/10/22,01:50,0.787,1.195,0.839,1.503,1.078,0.459,0.810,0.767,�k��,4.8,��
2018/10/22,02:00,0.790,1.194,0.840,1.504,1.078,0.461,0.811,0.766,�k��,4.9,��
2018/10/22,02:10,0.788,1.196,0.840,1.505,1.075,0.459,0.812,0.768,�k��,5.4,��
2018/10/22,02:20,0.790,1.196,0.841,1.502,1.076,0.458,0.810,0.769,�k�k��,4.8,��
2018/10/22,02:30,0.787,1.195,0.840,1.503,1.076,0.460,0.809,0.768,�k��,5.2,��
2018/10/22,02:40,0.787,1.192,0.841,1.504,1.074,0.459,0.811,0.768,�k��,5.1,��
2018/10/22,02:50,0.789,1.194,0.839,1.504,1.077,0.459,0.810,0.769,�k��,5.4,��
2018/10/22,03:00,0.790,1.193,0.838,1.502,1.075,0.460,0.811,0.767,�k��,5.6,��
2018/10/22,03:10,0.788,1.191,0.840,1.501,1.074,0.461,0.811,0.769,�k��,5.6,��
2018/10/22,03:20,0.788,1.190,0.840,1.504,1.075,0.459,0.810,0.766,�k��,5.1,��
2018/10/22,03:30,0.790,1.194,0.839,1.504,1.078,0.461,0.811,0.767,�k��,5.2,��
2018/10/22,03:40,0.788,1.193,0.839,1.504,1.074,0.459,0.809,0.769,�k��,5.0,��
2018/10/22,03:50,0.788,1.192,0.840,1.505,1.075,0.458,0.809,0.767,�k��,4.8,��
2018/10/22,04:00,0.788,1.192,0.839,1.504,1.076,0.460,0.810,0.766,�k��,4.8,��
2018/10/22,04:10,0.787,1.191,0.837,1.504,1.074,0.459,0.810,0.766,�k��,4.7,��
2018/10/22,04:20,0.788,1.190,0.838,1.504,1.076,0.460,0.810,0.767,�k��,4.7,��
2018/10/22,04:30,0.786,1.192,0.840,1.502,1.073,0.458,0.811,0.767,�k��,4.6,��
2018/10/22,04:40,0.788,1.192,0.839,1.503,1.074,0.458,0.809,0.767,�k��,4.5,��
2018/10/22,04:50,0.786,1.194,0.838,1.499,1.076,0.459,0.810,0.765,�k��,5.0,��
2018/10/22,05:00,0.789,1.193,0.839,1.504,1.076,0.459,0.810,0.766,�k��,5.0,��
2018/10/22,05:10,0.789,1.192,0.839,1.502,1.074,0.459,0.809,0.767,�k��,4.4,��
2018/10/22,05:20,0.787,1.190,0.840,1.501,1.075,0.460,0.809,0.768,�k��,4.7,��
2018/10/22,05:30,0.789,1.191,0.840,1.503,1.077,0.459,0.811,0.768,�k��,4.3,��
2018/10/22,05:40,0.788,1.193,0.837,1.503,1.075,0.460,0.810,0.768,�k��,4.4,��
2018/10/22,05:50,0.787,1.195,0.838,1.501,1.074,0.458,0.809,0.767,�k��,4.2,��
2018/10/22,06:00,0.787,1.194,0.839,1.499,1.076,0.459,0.810,0.766,�k��,4.5,��
2018/10/22,06:10,0.786,1.191,0.838,1.504,1.074,0.460,0.808,0.767,�k��,4.5,��
2018/10/22,06:20,0.788,1.189,0.839,1.501,1.076,0.458,0.810,0.767,�k��,4.4,��
2018/10/22,06:30,0.788,1.190,0.838,1.501,1.074,0.459,0.810,0.766,�k��,4.1,��
2018/10/22,06:40,0.786,1.193,0.839,1.500,1.073,0.459,0.809,0.766,�k��,4.1,��
2018/10/22,06:50,0.785,1.191,0.838,1.502,1.076,0.459,0.810,0.766,�k��,4.1,��
2018/10/22,07:00,0.786,1.192,0.838,1.502,1.073,0.459,0.811,0.767,�k��,4.2,��
2018/10/22,07:10,0.787,1.193,0.838,1.504,1.075,0.459,0.810,0.767,�k��,3.1,��
2018/10/22,07:20,0.787,1.192,0.838,1.498,1.075,0.460,0.809,0.767,�k��,3.2,��
2018/10/22,07:30,0.787,1.192,0.839,1.501,1.077,0.459,0.811,0.767,�k��,3.9,��
2018/10/22,07:40,0.787,1.194,0.839,1.501,1.075,0.460,0.812,0.768,�k�k��,3.7,��
2018/10/22,07:50,0.789,1.192,0.838,1.499,1.074,0.460,0.812,0.767,�k�k��,3.6,��
2018/10/22,08:00,0.789,1.194,0.839,1.503,1.076,0.458,0.812,0.769,�k�k��,3.8,��
2018/10/22,08:10,0.790,1.194,0.841,1.502,1.077,0.460,0.814,0.767,�k�k��,3.3,��
2018/10/22,08:20,0.790,1.193,0.839,1.503,1.079,0.460,0.813,0.769,�k�k��,3.2,��
2018/10/22,08:30,0.789,1.194,0.839,1.504,1.077,0.461,0.813,0.769,�k�k��,3.1,��
2018/10/22,08:40,0.791,1.191,0.840,1.504,1.078,0.461,0.810,0.767,�k�k��,2.9,��
2018/10/22,08:50,0.792,1.196,0.842,1.503,1.077,0.460,0.811,0.768,�k�k��,2.6,��
2018/10/22,09:00,0.791,1.191,0.839,1.505,1.077,0.460,0.810,0.769,�k�k��,2.3,��
2018/10/22,09:10,0.789,1.189,0.841,1.503,1.079,0.460,0.811,0.770,�k��,2.8,��
2018/10/22,09:20,0.787,1.191,0.840,1.504,1.078,0.460,0.811,0.770,�k�k��,2.9,��
2018/10/22,09:30,0.789,1.190,0.843,1.504,1.078,0.462,0.812,0.770,�k�k��,3.3,��
2018/10/22,09:40,0.789,1.191,0.839,1.502,1.077,0.460,0.811,0.769,�k�k��,3.6,��
2018/10/22,09:50,0.790,1.186,0.839,1.506,1.076,0.460,0.811,0.769,�k,2.5,��
2018/10/22,10:00,0.789,1.193,0.841,1.506,1.080,0.460,0.810,0.769,�k�k��,2.9,��
2018/10/22,10:10,0.790,1.190,0.841,1.507,1.078,0.460,0.811,0.768,�k�k��,4.2,��
2018/10/22,10:20,0.792,1.194,0.840,1.502,1.076,0.458,0.810,0.768,�k�k��,4.5,��
2018/10/22,10:30,0.789,1.192,0.841,1.505,1.077,0.459,0.809,0.768,�k�k��,4.5,��
2018/10/22,10:40,0.791,1.192,0.839,1.504,1.081,0.459,0.812,0.767,�k�k��,4.8,��
2018/10/22,10:50,0.793,1.194,0.839,1.504,1.079,0.460,0.811,0.766,�k�k��,4.5,��
2018/10/22,11:00,0.790,1.194,0.839,1.507,1.078,0.459,0.813,0.768,�k��,4.8,��
2018/10/22,11:10,0.793,1.194,0.841,1.506,1.080,0.460,0.813,0.767,�k��,4.3,��
2018/10/22,11:20,0.790,1.195,0.841,1.506,1.080,0.460,0.814,0.769,�k�k��,4.9,��
2018/10/22,11:30,0.791,1.194,0.839,1.508,1.079,0.459,0.812,0.768,�k��,4.5,��
2018/10/22,11:40,0.792,1.193,0.839,1.509,1.079,0.461,0.810,0.767,�k�k��,4.4,��
2018/10/22,11:50,0.791,1.196,0.840,1.507,1.081,0.460,0.812,0.766,�k��,4.5,��
2018/10/22,12:00,0.793,1.195,0.842,1.505,1.084,0.460,0.813,0.769,�k��,4.6,��
2018/10/22,12:10,0.792,1.195,0.841,1.505,1.083,0.462,0.812,0.768,�k��,4.9,��
2018/10/22,12:20,0.794,1.195,0.840,1.507,1.084,0.463,0.812,0.766,�k��,5.2,��
2018/10/22,12:30,0.791,1.195,0.842,1.507,1.083,0.464,0.813,0.768,�k��,5.3,��
2018/10/22,12:40,0.795,1.193,0.838,1.505,1.083,0.462,0.813,0.766,�k��,4.8,��
2018/10/22,12:50,0.792,1.192,0.840,1.506,1.083,0.463,0.813,0.767,�k��,4.3,��
2018/10/22,13:00,0.793,1.195,0.839,1.509,1.082,0.461,0.812,0.766,�k��,3.4,��
2018/10/22,13:10,0.794,1.196,0.840,1.508,1.085,0.461,0.812,0.765,�k��,3.7,��
2018/10/22,13:20,0.792,1.195,0.841,1.506,1.085,0.461,0.813,0.767,�k��,3.0,��
2018/10/22,13:30,0.793,1.198,0.842,1.507,1.084,0.460,0.811,0.768,���k��,2.9,��
2018/10/22,13:40,0.792,1.195,0.842,1.508,1.083,0.461,0.811,0.767,���k��,2.6,��
2018/10/22,13:50,0.792,1.196,0.842,1.507,1.082,0.459,0.812,0.767,���k��,2.9,��
2018/10/22,14:00,0.794,1.196,0.842,1.509,1.084,0.460,0.812,0.767,���k��,2.3,��
2018/10/22,14:10,0.791,1.194,0.842,1.509,1.084,0.462,0.812,0.766,���k��,2.3,��
2018/10/22,14:20,0.794,1.194,0.841,1.508,1.083,0.461,0.814,0.767,���k��,2.2,��
2018/10/22,14:30,0.793,1.195,0.841,1.507,1.086,0.462,0.812,0.768,�k��,2.0,��
2018/10/22,14:40,0.792,1.195,0.843,1.507,1.083,0.462,0.813,0.766,��,2.0,��
2018/10/22,14:50,0.792,1.193,0.840,1.509,1.085,0.461,0.813,0.767,���k��,1.7,��
2018/10/22,15:00,0.793,1.196,0.843,1.508,1.084,0.462,0.811,0.767,���k��,2.0,��
2018/10/22,15:10,0.794,1.196,0.840,1.508,1.083,0.461,0.811,0.767,�k��,1.9,��
2018/10/22,15:20,0.794,1.195,0.843,1.506,1.082,0.462,0.810,0.767,�k��,1.9,��
2018/10/22,15:30,0.794,1.195,0.842,1.508,1.087,0.463,0.812,0.767,��,1.9,��
2018/10/22,15:40,0.792,1.198,0.842,1.507,1.085,0.462,0.812,0.768,��,1.9,��
2018/10/22,15:50,0.792,1.198,0.838,1.506,1.085,0.462,0.812,0.767,���k��,1.7,��
2018/10/22,16:00,0.793,1.200,0.840,1.508,1.084,0.463,0.812,0.766,���k��,1.2,��
2018/10/22,16:10,0.792,1.201,0.841,1.508,1.084,0.462,0.813,0.769,�k��,1.2,��
2018/10/22,16:20,0.794,1.201,0.842,1.509,1.086,0.461,0.813,0.769,���k��,1.5,��
2018/10/22,16:30,0.792,1.203,0.841,1.507,1.085,0.463,0.813,0.769,���k��,1.2,��
2018/10/22,16:40,0.791,1.204,0.840,1.509,1.084,0.463,0.812,0.770,���k��,1.1,��
2018/10/22,16:50,0.794,1.201,0.839,1.504,1.085,0.462,0.813,0.769,���k��,1.2,��
2018/10/22,17:00,0.794,1.204,0.838,1.507,1.088,0.461,0.812,0.769,�k��,1.2,��
2018/10/22,17:10,0.794,1.202,0.842,1.507,1.086,0.463,0.814,0.770,��,1.2,��
2018/10/22,17:20,0.794,1.203,0.843,1.508,1.087,0.463,0.812,0.769,���k��,1.2,��
2018/10/22,17:30,0.796,1.202,0.843,1.508,1.087,0.462,0.813,0.767,��,0.9,��
2018/10/22,17:40,0.794,1.202,0.843,1.509,1.088,0.463,0.813,0.768,�k�k��,0.6,��
2018/10/22,17:50,0.794,1.201,0.844,1.506,1.085,0.461,0.812,0.770,-,CALM,��
2018/10/22,18:00,0.793,1.204,0.843,1.508,1.087,0.463,0.813,0.768,�k,0.9,��
2018/10/22,18:10,0.794,1.201,0.843,1.510,1.083,0.462,0.811,0.767,�k��,1.4,��
2018/10/22,18:20,0.794,1.201,0.844,1.508,1.087,0.463,0.811,0.769,�k��,1.1,��
2018/10/22,18:30,0.792,1.200,0.842,1.509,1.085,0.462,0.812,0.768,�k��,1.5,��
2018/10/22,18:40,0.794,1.201,0.844,1.506,1.086,0.461,0.812,0.767,���k��,1.4,��
2018/10/22,18:50,0.793,1.202,0.844,1.509,1.085,0.461,0.812,0.767,���k��,1.5,��
2018/10/22,19:00,0.794,1.203,0.844,1.510,1.085,0.462,0.811,0.768,���k��,1.5,��
2018/10/22,19:10,0.792,1.204,0.844,1.509,1.086,0.463,0.811,0.766,���k��,1.5,��
2018/10/22,19:20,0.795,1.202,0.845,1.511,1.088,0.462,0.812,0.767,���k��,1.5,��
2018/10/22,19:30,0.793,1.201,0.843,1.509,1.085,0.462,0.812,0.767,���k��,1.4,��
2018/10/22,19:40,0.794,1.203,0.841,1.507,1.085,0.462,0.813,0.769,���k��,1.2,��
2018/10/22,19:50,0.796,1.203,0.844,1.508,1.082,0.463,0.811,0.769,���k��,1.5,��
2018/10/22,20:00,0.793,1.201,0.842,1.511,1.086,0.462,0.812,0.768,���k��,1.5,��
2018/10/22,20:10,0.793,1.199,0.843,1.507,1.086,0.462,0.811,0.768,���k��,1.5,��
2018/10/22,20:20,0.794,1.200,0.844,1.509,1.084,0.462,0.813,0.767,��,1.7,��
2018/10/22,20:30,0.793,1.201,0.842,1.508,1.084,0.461,0.810,0.767,��,1.7,��
2018/10/22,20:40,0.792,1.201,0.843,1.509,1.086,0.462,0.811,0.768,��,1.5,��
2018/10/22,20:50,0.792,1.200,0.844,1.508,1.085,0.461,0.811,0.766,��,1.9,��
2018/10/22,21:00,0.793,1.202,0.844,1.507,1.083,0.462,0.810,0.769,��,2.0,��
2018/10/22,21:10,0.793,1.201,0.843,1.509,1.085,0.461,0.810,0.768,��,1.7,��
2018/10/22,21:20,0.793,1.201,0.842,1.508,1.084,0.462,0.812,0.768,���쐼,1.2,��
2018/10/22,21:30,0.792,1.199,0.844,1.509,1.086,0.462,0.812,0.769,��,1.7,��
2018/10/22,21:40,0.792,1.200,0.845,1.506,1.087,0.460,0.812,0.766,��,1.4,��
2018/10/22,21:50,0.794,1.200,0.845,1.507,1.083,0.462,0.810,0.768,��,1.2,��
2018/10/22,22:00,0.794,1.200,0.843,1.507,1.083,0.461,0.811,0.769,��,1.5,��
2018/10/22,22:10,0.792,1.201,0.843,1.509,1.087,0.461,0.812,0.767,��,1.5,��
2018/10/22,22:20,0.792,1.201,0.846,1.505,1.085,0.461,0.813,0.767,��,1.5,��
2018/10/22,22:30,0.793,1.198,0.844,1.510,1.083,0.462,0.814,0.768,���k��,1.7,��
2018/10/22,22:40,0.792,1.201,0.845,1.508,1.084,0.460,0.812,0.768,��,1.7,��
2018/10/22,22:50,0.792,1.200,0.844,1.509,1.084,0.462,0.812,0.768,���k��,1.2,��
2018/10/22,23:00,0.791,1.199,0.845,1.507,1.085,0.461,0.812,0.768,��,1.2,��
2018/10/22,23:10,0.793,1.202,0.844,1.506,1.083,0.460,0.812,0.770,���k��,1.1,��
2018/10/22,23:20,0.791,1.201,0.843,1.508,1.083,0.462,0.812,0.766,�k��,1.4,��
2018/10/22,23:30,0.792,1.200,0.842,1.505,1.083,0.461,0.812,0.767,�k��,1.7,��
2018/10/22,23:40,0.793,1.197,0.842,1.509,1.084,0.461,0.812,0.767,�k��,1.7,��
2018/10/22,23:50,0.791,1.198,0.843,1.510,1.083,0.461,0.813,0.769,�k�k��,2.0,��
